Galesburg, IL

8:46 PM CDT on August 19, 2019 (GMT -0500)
Galesburg Municipal

Weather History for KGBG - May, 2019

Change the Weather History Date:

Saturday, May 4, 2019

  Actual Average Record
Temperature  
Mean Temperature 52 °F -  
Max Temperature 66 °F 68 °F 90 °F (1952)
Min Temperature 39 °F 47 °F 28 °F (2005)
Degree Days  
Heating Degree Days 12    
Growing Degree Days 2 (Base 50)    
Moisture  
Dew Point 44 °F    
Average Humidity 72    
Maximum Humidity 99    
Minimum Humidity 45    
Precipitation  
Precipitation 0.00 in - - ()
Sea Level Pressure  
Sea Level Pressure 29.99 in    
Wind  
Wind Speed 3 mph (NE)    
Max Wind Speed 13 mph    
Max Gust Speed -    
Visibility 10 miles    
Events      
Averages and records for this station are not official NWS values.
T = Trace of Precipitation, MM = Missing Value Source: NWS Daily Summary

Daily Weather History Graph

Daily Weather History Graph

Search for Another Location

Airport or City:

Astronomy

May. 04, 2019 Rise Set
Actual Time 5:56 AM CDT 8:01 PM CDT
Civil Twilight 5:26 AM CDT 8:31 PM CDT
Nautical Twilight 4:49 AM CDT 9:08 PM CDT
Astronomical Twilight 4:09 AM CDT 9:48 PM CDT
Moon 6:08 AM CDT (5/4) 7:50 PM CDT (5/4)
Length of Visible Light 15h 05m
Length of Day
14h 04m
Waning Crescent, 0% of the Moon is Illuminated
May 4
Waning Crescent
May 4
New
May 11
First Quarter
May 18
Full
May 26
Last Quarter

Hourly Weather History & Observations

Time (CDT) Temp. Windchill Dew Point Humidity Pressure Visibility Wind Dir Wind Speed Gust Speed Precip Events Conditions
12:15 AM 43.9 °F 42.3 °F 43.7 °F 99% 30.02 in 7.0 mi NE 3.5 mph - N/A   Clear
12:35 AM 42.1 °F 38.4 °F 41.9 °F 99% 30.02 in 10.0 mi NE 5.8 mph - N/A   Clear
12:55 AM 43.7 °F 41.1 °F 43.5 °F 99% 30.03 in 10.0 mi ENE 4.6 mph - N/A   Clear
1:15 AM 45.1 °F - 45.0 °F 99% 30.03 in 10.0 mi Calm Calm - N/A   Clear
1:35 AM 45.9 °F - 44.6 °F 95% 30.03 in 10.0 mi Calm Calm - N/A   Clear
1:55 AM 44.2 °F 42.7 °F 42.6 °F 94% 30.03 in 10.0 mi ENE 3.5 mph - N/A   Clear
2:15 AM 43.5 °F - 42.4 °F 96% 30.03 in 10.0 mi Calm Calm - N/A   Clear
2:35 AM 43.5 °F - 43.0 °F 98% 30.03 in 10.0 mi Calm Calm - N/A   Clear
2:55 AM 43.2 °F - 42.6 °F 98% 30.02 in 10.0 mi Calm Calm - N/A   Clear
3:15 AM 42.1 °F - 41.7 °F 99% 30.02 in 10.0 mi Calm Calm - N/A   Clear
3:35 AM 43.3 °F 41.7 °F 43.2 °F 99% 30.02 in 10.0 mi ENE 3.5 mph - N/A   Clear
3:55 AM 43.2 °F - 42.4 °F 97% 30.02 in 10.0 mi Calm Calm - N/A   Clear
4:15 AM 43.0 °F - 41.4 °F 94% 30.02 in 10.0 mi Calm Calm - N/A   Clear
4:35 AM 41.7 °F - 40.5 °F 95% 30.03 in 10.0 mi Calm Calm - N/A   Clear
4:55 AM 41.0 °F 39.0 °F 39.7 °F 95% 30.03 in 10.0 mi ENE 3.5 mph - N/A   Clear
5:15 AM 39.7 °F 37.6 °F 39.2 °F 98% 30.03 in 10.0 mi NE 3.5 mph - N/A   Clear
5:35 AM 40.3 °F 38.2 °F 39.6 °F 97% 30.03 in 10.0 mi NE 3.5 mph - N/A   Clear
5:55 AM 40.1 °F 38.0 °F 39.2 °F 97% 30.03 in 10.0 mi NE 3.5 mph - N/A   Clear
6:15 AM 39.9 °F 37.8 °F 39.2 °F 97% 30.03 in 10.0 mi ENE 3.5 mph - N/A   Clear
6:35 AM 39.4 °F 35.2 °F 38.8 °F 98% 30.04 in 10.0 mi ENE 5.8 mph - N/A   Clear
6:55 AM 41.5 °F 38.6 °F 41.0 °F 98% 30.04 in 10.0 mi NE 4.6 mph - N/A   Clear
7:15 AM 43.9 °F - 41.5 °F 91% 30.04 in 10.0 mi Calm Calm - N/A   Clear
7:55 AM 47.3 °F - 42.1 °F 82% 30.05 in 10.0 mi ENE 5.8 mph - N/A   Clear
8:15 AM 49.3 °F - 43.3 °F 80% 30.05 in 10.0 mi ENE 6.9 mph - N/A   Clear
8:35 AM 51.4 °F - 43.3 °F 74% 30.04 in 10.0 mi NE 5.8 mph - N/A   Clear
8:55 AM 53.4 °F - 44.6 °F 72% 30.04 in 10.0 mi ENE 9.2 mph - N/A   Clear
9:15 AM 54.5 °F - 44.2 °F 68% 30.03 in 10.0 mi NE 10.4 mph - N/A   Clear
9:35 AM 55.4 °F - 43.9 °F 65% 30.04 in 10.0 mi NE 9.2 mph - N/A   Clear
9:55 AM 56.5 °F - 44.2 °F 64% 30.04 in 10.0 mi NE 12.7 mph - N/A   Clear
10:15 AM 57.4 °F - 45.0 °F 63% 30.04 in 10.0 mi NE 10.4 mph - N/A   Clear
10:35 AM 57.6 °F - 44.6 °F 62% 30.04 in 10.0 mi NE 9.2 mph - N/A   Clear
10:55 AM 58.8 °F - 43.5 °F 57% 30.04 in 10.0 mi NE 10.4 mph - N/A   Clear
11:15 AM 59.4 °F - 44.8 °F 58% 30.04 in 10.0 mi NE 6.9 mph - N/A   Clear
11:35 AM 59.7 °F - 43.5 °F 55% 30.03 in 10.0 mi ENE 5.8 mph - N/A   Clear
11:55 AM 60.1 °F - 45.1 °F 58% 30.03 in 10.0 mi NE 9.2 mph - N/A   Clear
12:15 PM 61.0 °F - 44.6 °F 55% 30.02 in 10.0 mi ENE 6.9 mph - N/A   Clear
12:35 PM 61.2 °F - 44.8 °F 55% 30.02 in 10.0 mi NE 9.2 mph - N/A   Clear
12:55 PM 61.9 °F - 45.3 °F 55% 30.01 in 10.0 mi NE 5.8 mph - N/A   Clear
1:15 PM 63.0 °F - 45.0 °F 52% 30.00 in 10.0 mi ENE 5.8 mph - N/A   Clear
1:35 PM 63.3 °F - 45.1 °F 52% 29.99 in 10.0 mi NE 6.9 mph - N/A   Clear
1:55 PM 63.9 °F - 42.1 °F 45% 29.99 in 10.0 mi East 5.8 mph - N/A   Clear
2:15 PM 64.4 °F - 43.7 °F 47% 29.98 in 10.0 mi Calm Calm - N/A   Clear
2:35 PM 64.6 °F - 44.6 °F 48% 29.97 in 10.0 mi ENE 3.5 mph - N/A   Clear
2:55 PM 64.8 °F - 45.0 °F 49% 29.97 in 10.0 mi ENE 3.5 mph - N/A   Clear
3:15 PM 65.8 °F - 46.0 °F 49% 29.97 in 10.0 mi NW 4.6 mph - N/A   Clear
3:35 PM 65.7 °F - 45.1 °F 47% 29.96 in 10.0 mi NE 8.1 mph - N/A   Clear
3:55 PM 65.8 °F - 45.9 °F 48% 29.95 in 10.0 mi North 6.9 mph - N/A   Clear
4:15 PM 65.8 °F - 45.5 °F 48% 29.95 in 10.0 mi NE 5.8 mph - N/A   Clear
4:35 PM 65.8 °F - 45.5 °F 48% 29.95 in 10.0 mi NW 4.6 mph - N/A   Clear
4:55 PM 65.8 °F - 45.3 °F 47% 29.94 in 10.0 mi Calm Calm - N/A   Clear
5:15 PM 66.2 °F - 45.1 °F 47% 29.94 in 10.0 mi NNW 4.6 mph - N/A   Clear
5:35 PM 66.2 °F - 45.0 °F 46% 29.93 in 10.0 mi Calm Calm - N/A   Clear
5:55 PM 66.4 °F - 44.6 °F 45% 29.93 in 10.0 mi Calm Calm - N/A   Clear
6:15 PM 65.8 °F - 45.0 °F 47% 29.93 in 10.0 mi Calm Calm - N/A   Clear
6:35 PM 65.3 °F - 43.9 °F 46% 29.93 in 10.0 mi Calm Calm - N/A   Clear
6:55 PM 65.1 °F - 43.7 °F 46% 29.92 in 10.0 mi Calm Calm - N/A   Clear
7:15 PM 64.8 °F - 43.3 °F 46% 29.92 in 10.0 mi Calm Calm - N/A   Clear
7:35 PM 63.5 °F - 45.7 °F 52% 29.92 in 10.0 mi Calm Calm - N/A   Clear
7:55 PM 62.4 °F - 44.2 °F 51% 29.92 in 10.0 mi Calm Calm - N/A   Clear
8:15 PM 60.8 °F - 46.4 °F 59% 29.91 in 10.0 mi Calm Calm - N/A   Clear
8:35 PM 55.9 °F - 48.2 °F 75% 29.91 in 10.0 mi ENE 4.6 mph - N/A   Clear
8:55 PM 56.8 °F - 46.8 °F 69% 29.92 in 10.0 mi ESE 3.5 mph - N/A   Clear
9:15 PM 57.2 °F - 46.4 °F 67% 29.92 in 10.0 mi Calm Calm - N/A   Clear
9:35 PM 54.5 °F - 48.0 °F 79% 29.92 in 10.0 mi Calm Calm - N/A   Clear
9:55 PM 53.4 °F - 47.1 °F 79% 29.92 in 10.0 mi Calm Calm - N/A   Clear
10:15 PM 53.6 °F - 47.3 °F 79% 29.92 in 10.0 mi Calm Calm - N/A   Clear
10:35 PM 52.7 °F - 46.8 °F 80% 29.92 in 10.0 mi Calm Calm - N/A   Clear
10:55 PM 51.8 °F - 47.3 °F 85% 29.92 in 10.0 mi Calm Calm - N/A   Clear
11:15 PM 50.5 °F - 47.7 °F 90% 29.92 in 10.0 mi Calm Calm - N/A   Clear
11:35 PM 48.6 °F - 46.9 °F 94% 29.93 in 10.0 mi Calm Calm - N/A   Clear
11:55 PM 49.1 °F - 47.5 °F 94% 29.93 in 10.0 mi Calm Calm - N/A   Clear